• In Austria
  • List of Countries
  • For 7 days
  • Water Temperature
  • Satellite Maps
  • Weather Map
  • News
  • Weather Widgets
  • user-avatar
    Login

    Hourly Weather Smolan

    Today, 13 December, Wednesday

    Time Temperature Precipitation Wind Pressure Humidity
    00:00 +2°C° 0 mm 2 mps 656 mmHg 76%
    01:00 +2°C° 0 mm 2 mps 656 mmHg 76%
    02:00 +2°C° 0 mm 2 mps 656 mmHg 76%
    03:00 +2°C° 0 mm 2 mps 656 mmHg 76%
    04:00 +2°C° 0 mm 2 mps 656 mmHg 76%
    05:00 +3°C° 0 mm 1 mps 655 mmHg 76%
    06:00 +3°C° 0 mm 1 mps 655 mmHg 76%
    07:00 +2°C° 0 mm 2 mps 656 mmHg 76%
    08:00 +2°C° 0 mm 2 mps 656 mmHg 75%
    09:00 +5°C° 0 mm 1 mps 656 mmHg 69%
    10:00 +7°C° 0 mm 1 mps 657 mmHg 63%
    11:00 +9°C° 0 mm 1 mps 658 mmHg 56%
    12:00 +10°C° 0 mm 1 mps 657 mmHg 55%
    13:00 +10°C° 0 mm 1 mps 657 mmHg 54%
    14:00 +11°C° 0 mm 1 mps 657 mmHg 53%
    15:00 +9°C° 0 mm 1 mps 656 mmHg 61%
    16:00 +8°C° 0 mm 1 mps 656 mmHg 68%
    17:00 +6°C° 0 mm 1 mps 655 mmHg 76%
    18:00 +6°C° 0 mm 1 mps 655 mmHg 75%
    19:00 +5°C° 0 mm 1 mps 655 mmHg 75%
    20:00 +5°C° 0 mm 1 mps 655 mmHg 74%
    21:00 +5°C° 0 mm 1 mps 654 mmHg 72%
    22:00 +5°C° 0 mm 1 mps 654 mmHg 70%
    23:00 +5°C° 0 mm 1 mps 654 mmHg 68%

    Tomorrow, 14 December, Thursday

    Time Temperature Precipitation Wind Pressure Humidity
    00:00 +5°C° 0 mm 1 mps 653 mmHg 68%
    01:00 +5°C° 0 mm 1 mps 653 mmHg 69%
    02:00 +5°C° 0 mm 1 mps 653 mmHg 70%
    03:00 +4°C° 0 mm 1 mps 653 mmHg 72%
    04:00 +3°C° 0 mm 2 mps 652 mmHg 73%
    05:00 +3°C° 0 mm 2 mps 652 mmHg 75%
    06:00 +3°C° 0 mm 2 mps 652 mmHg 77%
    07:00 +2°C° 0 mm 2 mps 652 mmHg 79%
    08:00 +2°C° 0 mm 2 mps 652 mmHg 80%
    09:00 +5°C° 0 mm 1 mps 652 mmHg 74%
    10:00 +7°C° 0 mm 1 mps 653 mmHg 67%
    11:00 +8°C° 0 mm 1 mps 654 mmHg 61%
    12:00 +9°C° 0 mm 1 mps 653 mmHg 59%
    13:00 +9°C° 0 mm 1 mps 653 mmHg 58%
    14:00 +8°C° 0 mm 2 mps 653 mmHg 56%
    15:00 +8°C° 0 mm 1 mps 653 mmHg 62%
    16:00 +7°C° 0 mm 1 mps 652 mmHg 68%
    17:00 +4°C° 0 mm 0 mps 652 mmHg 75%
    18:00 +5°C° 0 mm 1 mps 652 mmHg 77%
    19:00 +4°C° 0 mm 1 mps 653 mmHg 79%
    20:00 +4°C° 0 mm 1 mps 653 mmHg 81%
    21:00 +4°C° 0 mm 1 mps 653 mmHg 81%
    22:00 +3°C° 0 mm 1 mps 653 mmHg 81%
    23:00 +3°C° 0 mm 1 mps 653 mmHg 82%

    Day after tomorrow, 15 December, Friday

    Time Temperature Precipitation Wind Pressure Humidity
    00:00 +3°C° 0 mm 1 mps 653 mmHg 81%
    01:00 +3°C° 0 mm 1 mps 653 mmHg 81%
    02:00 +3°C° 0 mm 1 mps 653 mmHg 81%
    03:00 +2°C° 0 mm 1 mps 653 mmHg 79%
    04:00 +2°C° 0 mm 1 mps 652 mmHg 78%
    05:00 +2°C° 0 mm 1 mps 652 mmHg 77%
    06:00 +2°C° 0 mm 1 mps 652 mmHg 75%
    07:00 +2°C° 0 mm 1 mps 652 mmHg 73%
    08:00 +2°C° 0 mm 1 mps 652 mmHg 70%
    09:00 +4°C° 0 mm 1 mps 653 mmHg 65%
    10:00 +6°C° 0 mm 1 mps 653 mmHg 59%
    11:00 +7°C° 0 mm 2 mps 654 mmHg 54%
    12:00 +7°C° 0 mm 2 mps 653 mmHg 52%
    13:00 +8°C° 0 mm 2 mps 653 mmHg 51%
    14:00 +8°C° 0 mm 3 mps 653 mmHg 49%
    15:00 +7°C° 0 mm 2 mps 652 mmHg 56%
    16:00 +5°C° 0 mm 2 mps 651 mmHg 62%
    17:00 +4°C° 0 mm 2 mps 651 mmHg 69%
    18:00 +3°C° 0 mm 2 mps 651 mmHg 70%
    19:00 +3°C° 0 mm 2 mps 651 mmHg 70%
    20:00 +3°C° 0 mm 2 mps 651 mmHg 71%
    21:00 +3°C° 0 mm 2 mps 651 mmHg 73%
    22:00 +2°C° 0 mm 2 mps 651 mmHg 74%
    23:00 +2°C° 0 mm 2 mps 651 mmHg 76%

    16 December, Saturday

    Time Temperature Precipitation Wind Pressure Humidity
    00:00 +2°C° 0 mm 2 mps 650 mmHg 78%
    01:00 +2°C° 0 mm 2 mps 650 mmHg 80%
    02:00 +2°C° 0 mm 2 mps 650 mmHg 82%
    03:00 +2°C° 0 mm 2 mps 650 mmHg 83%
    04:00 +2°C° 0 mm 2 mps 650 mmHg 83%
    05:00 +2°C° 0 mm 2 mps 650 mmHg 84%
    06:00 +2°C° 0 mm 2 mps 650 mmHg 84%
    07:00 +2°C° 0 mm 2 mps 650 mmHg 85%
    08:00 +2°C° 0 mm 2 mps 650 mmHg 85%
    09:00 +4°C° 0 mm 2 mps 651 mmHg 81%
    10:00 +5°C° 0 mm 2 mps 651 mmHg 77%
    11:00 +6°C° 0 mm 2 mps 652 mmHg 73%
    12:00 +7°C° 0 mm 2 mps 652 mmHg 72%
    13:00 +7°C° 0 mm 3 mps 651 mmHg 70%
    14:00 +8°C° 0 mm 3 mps 651 mmHg 68%
    15:00 +7°C° 0 mm 2 mps 651 mmHg 73%
    16:00 +6°C° 0 mm 2 mps 651 mmHg 79%
    17:00 +5°C° 0 mm 2 mps 651 mmHg 84%
    18:00 +5°C° 0.1 mm 2 mps 651 mmHg 86%
    19:00 +5°C° 0.1 mm 2 mps 651 mmHg 88%
    20:00 +6°C° 0.1 mm 1 mps 651 mmHg 90%
    21:00 +5°C° 0.3 mm 1 mps 651 mmHg 91%
    22:00 +5°C° 0.3 mm 1 mps 651 mmHg 92%
    23:00 +4°C° 0.3 mm 2 mps 651 mmHg 93%

    17 December, Sunday

    Time Temperature Precipitation Wind Pressure Humidity
    00:00 +4°C° 0.9 mm 2 mps 651 mmHg 93%
    01:00 +4°C° 0.9 mm 2 mps 650 mmHg 94%
    02:00 +4°C° 0.9 mm 2 mps 650 mmHg 95%
    03:00 +4°C° 0.9 mm 2 mps 650 mmHg 95%
    04:00 +4°C° 0.9 mm 2 mps 649 mmHg 95%
    05:00 +4°C° 0.9 mm 2 mps 649 mmHg 95%
    06:00 +3°C° 1.5 mm 3 mps 649 mmHg 95%
    07:00 +3°C° 1.5 mm 3 mps 650 mmHg 95%
    08:00 +3°C° 1.5 mm 3 mps 650 mmHg 95%
    09:00 +3°C° 1.3 mm 3 mps 650 mmHg 94%
    10:00 +4°C° 1.3 mm 2 mps 650 mmHg 93%
    11:00 +4°C° 1.3 mm 2 mps 651 mmHg 92%
    12:00 +3°C° 0.8 mm 2 mps 651 mmHg 91%
    13:00 +3°C° 0.8 mm 2 mps 651 mmHg 89%
    14:00 +3°C° 0.8 mm 2 mps 651 mmHg 88%
    15:00 +3°C° 0.9 mm 2 mps 651 mmHg 88%
    16:00 +2°C° 0.9 mm 2 mps 651 mmHg 87%
    17:00 +1°C° 0.9 mm 2 mps 651 mmHg 87%
    18:00 +1°C° 1.1 mm 2 mps 652 mmHg 88%
    19:00 +1°C° 1.1 mm 2 mps 652 mmHg 88%
    20:00 -1°C° 1.1 mm 2 mps 652 mmHg 89%
    21:00 -1°C° 0.6 mm 2 mps 653 mmHg 89%
    22:00 -1°C° 0.6 mm 2 mps 653 mmHg 89%
    23:00 -1°C° 0.6 mm 2 mps 653 mmHg 89%

    18 December, Monday

    Time Temperature Precipitation Wind Pressure Humidity
    00:00 -2°C° 0.3 mm 2 mps 654 mmHg 89%
    01:00 -2°C° 0.3 mm 2 mps 654 mmHg 89%
    02:00 -2°C° 0.3 mm 2 mps 654 mmHg 89%
    03:00 -2°C° 0.1 mm 2 mps 654 mmHg 90%
    04:00 -2°C° 0.1 mm 2 mps 654 mmHg 90%
    05:00 -2°C° 0.1 mm 2 mps 655 mmHg 90%
    06:00 -2°C° 0.1 mm 2 mps 655 mmHg 90%
    07:00 -2°C° 0.1 mm 2 mps 655 mmHg 90%
    08:00 -3°C° 0.1 mm 2 mps 656 mmHg 90%
    09:00 -2°C° 0.2 mm 2 mps 656 mmHg 88%
    10:00 -2°C° 0.2 mm 2 mps 657 mmHg 86%
    11:00 -2°C° 0.2 mm 2 mps 657 mmHg 85%
    12:00 -2°C° 0.5 mm 2 mps 657 mmHg 85%
    13:00 -2°C° 0.5 mm 2 mps 657 mmHg 85%
    14:00 -2°C° 0.5 mm 2 mps 657 mmHg 85%
    15:00 -2°C° 0.4 mm 2 mps 657 mmHg 87%
    16:00 -2°C° 0.4 mm 2 mps 657 mmHg 88%
    17:00 -3°C° 0.4 mm 2 mps 657 mmHg 90%
    18:00 -3°C° 0.1 mm 2 mps 658 mmHg 90%
    19:00 -3°C° 0.1 mm 2 mps 658 mmHg 91%
    20:00 -4°C° 0.1 mm 2 mps 658 mmHg 91%
    21:00 -4°C° 0.1 mm 2 mps 658 mmHg 91%
    22:00 -4°C° 0.1 mm 2 mps 659 mmHg 91%
    23:00 -4°C° 0.1 mm 2 mps 659 mmHg 91%
    Show more